STARLINK-34304, 64224

Orbit data source: Space-Track

STARLINK-34304, 64224 is a payload satellite owned by SpaceX/Seattle (US) in LEO that was launched on Sat, 31 May 2025 UTC via an FALCON 9 launch vehicle from the Air Force Western Test Range (AFWTR). Payload-class satellites include a variety of spacecraft equipped with specific instruments for various scientific and technological missions. These include communications satellites like Starlink; space stations such as the ISS; scientific satellites like the Hubble; Earth observation satellites from companies like Planet Labs, Umbra, and HawkEye 360; GPS; miniature CubeSats for education and research; and military/defense satellites.

Loading next visibility...
Identifier
64224, 2025-117X
Orbit
LEO
Country
Flag of USUS
Related business
Manufacturer
SpaceX/Seattle
Mission
Operational Commercial Communications
Bus & Motor
STARLINK V2MO, Unknown motor
Mass
575 kg wet, ~530 kg dry
Launch date (UTC)
2025-05-31 (1 year ago)
Launch vehicle
FALCON 9
Launch site
Air Force Western Test Range (AFWTR)
Object type
Payload
Rocket body
Debris
Shape & HBR
Box + 1 Pan, 17.7 m
Radar Cross Section
41.120 m², Large (>1 m²)

Expand to show TLE details & history
Last TLE update: 13 hours ago

TLE from 13 hours ago
0 STARLINK-34304
1 64224U 25117X   26235.71352651  .00019273  00000-0  57991-3 0  9998
2 64224  53.1601 343.3748 0002443  75.4929 284.6345 15.34408112 70139
Epoch: 2026-08-23T17:07Z
TLE epoch observation values (Epoch: 2026-08-23T17:07:28.690Z)
Latitude
0.00002°
Longitude
114.49964°
Altitude
463.159 km
Speed
7.636 km/s
True Right ascension
22h 53m 29s
True Declination
0° 00' 00"
Sunlit
Object was in full shadow at epoch
Visualization orbit readout
Latitude
Unknown
Longitude
Unknown
Altitude
Unknown
Speed
Unknown
Apparent Right ascension
Unknown
Apparent Declination
Unknown
Sunlit
N/A
Visualization observer readout
Local Sidereal Time
21:44:26
Azimuth
Unknown
Elevation
Unknown
Doppler factor
Unknown
Orbital elements
Apogee altitude
464.607 km
Perigee altitude
461.265 km
Semi-major axis
6,841.073 km
Eccentricity
0.00024
Inclination
53.1601°
RAAN
343.3748°
Arg. of periapsis
75.4929°
True anomaly
284.60741°
Mean anomaly
284.6345°
Eccentric anomaly
284.62096°
Mean motion
3.83581 °/min
Orbital period
93.85 mins
BSTAR
0.00057991
Loading maneuver chart data...
Computing Atmospheric mass density...
Loading historical data...
Loading historical data...
Loading historical data...
Loading historical data...
Loading historical data...
Loading historical data...
Loading historical data...

Documentation

Showing up to 5 results
|